Regional Weather Roundup
Issued by NWS

Home | Current Version | Previous Version | Text Only | Print | Product List | Glossary On
Versions: 1 2 3 4 5 6 7 8 9 10 11 12 13 14 15 16 17 18 19 20 21 22 23 24 25 26 27 28 29 30 31 32 33 34 35 36 37 38 39 40 41 42 43 44 45 46 47 48 49 50
000
ASUS43 KLSX 140459
RWRMO

WEATHER SUMMARY FOR MISSOURI
NATIONAL WEATHER SERVICE SPRINGFIELD MO
1200 AM CDT MON JUL 14 2014

NOTE: "FAIR" INDICATES FEW OR NO CLOUDS BELOW 12,000 FEET WITH NO
       SIGNIFICANT WEATHER AND/OR OBSTRUCTIONS TO VISIBILITY.
       CURRENT SKY AND/OR WEATHER CONDITIONS ARE NOT AVAILABLE FOR
       CHILLICOTHE AND FARMINGTON.

MOZ001>031-035>038-043-044-053-054-140600-
...NORTHERN AND WESTERN MISSOURI...

CITY           SKY/WX    TMP DP  RH WIND       PRES   REMARKS
KANSAS CTY INT PTCLDY    73  69  87 SW6       29.99F
KANSAS C DTWN  CLEAR     77  69  76 CALM      29.97F
LEE`S SUMMIT   CLEAR     71  68  90 SW3       30.00R
ST JOSEPH      CLEAR     75  72  90 CALM      29.98S
CHILLICOTHE      N/A     74  70  87 CALM      29.97S
KIRKSVILLE     CLEAR     69  67  93 CALM      29.98R

$$
MOZ066>068-077>081-088>096-101>105-140600-
...SOUTHWEST MISSOURI...

CITY           SKY/WX    TMP DP  RH WIND       PRES   REMARKS
SPRINGFIELD    CLOUDY    77  71  82 E6        29.99F THUNDER
JOPLIN         PTCLDY    77  72  84 NE3       29.98S

$$
MOZ032>034-039>042-045>050-055>058-069>072-140600-
...CENTRAL MISSOURI...

CITY           SKY/WX    TMP DP  RH WIND       PRES   REMARKS
COLUMBIA       PTCLDY    71  71 100 NW5       29.96F
JEFFERSON CITY CLOUDY    74  72  93 NW3       29.95S
ROLLA          CLOUDY    71  69  93 CALM      29.97S
SEDALIA        CLEAR     70  69  97 NW6       29.98S FOG
OSAGE BEACH    CLOUDY    72  70  94 CALM      29.97S

$$
MOZ051-052-059>065-140600-
...EAST CENTRAL MISSOURI...

CITY           SKY/WX    TMP DP  RH WIND       PRES   REMARKS
ST LOUIS INTL  CLOUDY    78  74  87 S5        29.96R
SPIRIT OF STL  CLOUDY    75  73  93 CALM      29.93S
ST CHARLES     CLOUDY    74  72  93 CALM      29.93S

$$
MOZ072>076-082>087-097>100-106>115-140600-
...SOUTH CENTRAL AND SOUTHEAST MISSOURI...

CITY           SKY/WX    TMP DP  RH WIND       PRES   REMARKS
CAPE GIRARDEAU MOCLDY    81  75  82 S8        29.92S
FARMINGTON     CLOUDY    73  70  88 NW5       29.99R
POPLAR BLUFF   MOCLDY    82  72  71 S8        29.92S
WEST PLAINS    MOCLDY    80  72  76 SW6       30.00R

$$


USA.gov is the U.S. government's official web portal to all federal, state and local government web resources and services.